Regional Weather Roundup
Issued by NWS Charleston, SC

Current Version | Previous Version | Graphics & Text | Print | Product List | Glossary On
Versions: 1 2 3 4 5 6 7 8 9 10 11 12 13 14 15 16 17 18 19 20 21 22 23 24 25 26 27 28 29 30 31 32 33 34 35 36 37 38 39 40 41 42 43 44 45 46 47 48 49 50
000 ASUS42 KCHS 020812 RWRCHS REGIONAL WEATHER ROUNDUP NATIONAL WEATHER SERVICE CHARLESTON SC 400 AM EDT TUE JUN 02 2015 NOTE: "FAIR" INDICATES FEW OR NO CLOUDS BELOW 12,000 FEET WITH NO SIGNIFICANT WEATHER AND/OR OBSTRUCTIONS TO VISIBILITY. NOT ALL STATIONS ARE QUALITY CONTROLLED BY THE NATIONAL WEATHER SERVICE. USE DATA WITH CAUTION...ESPECIALLY DEWPOINT OBSERVATIONS. SCZ027-030-031-034>040-042>050-020900- ...SOUTHEAST SOUTH CAROLINA... CITY SKY/WX TMP DP RH WIND PRES REMARKS N CHARLESTON MOCLDY 73 69 87 CALM 30.00F WATERFRONT PAR N/A 76 72 87 CALM 29.98F MOUNT PLEASANT FAIR 70 70 100 CALM 30.00F JOHNS ISLAND SUNNY 72 70 94 CALM 30.00F PINOPOLIS N/A 73 70 88 VRB3 29.93S MONCKS CORNER FAIR 70 66 88 CALM 30.00F SUMMERVILLE FAIR 70 70 100 CALM 30.01F BEAUFORT MCAS MOCLDY 71 69 93 CALM 30.00F BEAUFORT ARPT CLOUDY 73 72 94 CALM 30.00S HILTON HEAD IS PTCLDY 73 72 94 CALM 30.01F WALTERBORO MOSUNNY 68 66 94 CALM 30.01F ALLENDALE PTSUNNY 68 68 100 CALM 29.99F ...SOUTHERN MIDLANDS AND PEE DEE... CITY SKY/WX TMP DP RH WIND PRES REMARKS GEORGETOWN NOT AVBL KINGSTREE NOT AVBL ORANGEBURG CLOUDY 69 66 90 CALM 30.01F BARNWELL PTSUNNY 70 70 100 CALM 30.01F AIKEN LGT RAIN 66 64 94 CALM 30.03S MANNING FAIR 72 66 83 CALM 30.01S COLUMBIA CLOUDY 69 67 93 S5 30.00S SUMTER CLOUDY 71 65 80 SW2 29.99F FLORENCE MOCLDY 70 68 93 CALM 30.00F MYRTLE BEACH CLEAR 73 68 83 SW5 30.03F N MYRTLE BEACH PTCLDY 75 69 81 W3 30.01F $$ GAZ063-065-086>088-099>101-113>116-118-119-134>141-150-020900- ...SOUTHEAST GEORGIA... CITY SKY/WX TMP DP RH WIND PRES REMARKS SAVANNAH ARPT MOCLDY 68 66 93 CALM 30.00F HUNTER AAF PTCLDY 69 68 98 CALM 29.98F FORT STEWART PTCLDY 67 65 94 CALM 29.99F STATESBORO CLOUDY 68 32 26 CALM 30.00F SYLVANIA CLOUDY 69 69 100 CALM 30.01F CLAXTON FOG 68 68 100 CALM 30.00F VSB 1/4 ...CSRA...CENTRAL AND FAR SOUTHEAST GEORGIA... CITY SKY/WX TMP DP RH WIND PRES REMARKS THOMSON CLOUDY 69 69 100 CALM 30.04F AUGUSTA-BUSH CLOUDY 68 67 96 CALM 29.99F FOG AUGUSTA-DANIEL CLOUDY 69 67 93 S3 30.00F SWAINSBORO PTSUNNY N/A N/A N/A CALM 30.01S VIDALIA CLOUDY 68 68 100 S5 30.01F EASTMAN CLOUDY 67 67 100 CALM 30.03F FOG HAZLEHURST CLOUDY 69 69 100 CALM 30.00F ALMA MOCLDY 66 65 96 CALM 30.00F FOG WAYCROSS PTCLDY 68 68 100 CALM 30.02R JESUP FAIR 68 66 94 CALM 30.01F BAXLEY FAIR 68 68 100 CALM 30.01S FOG BRUNSWICK N/A 68 64 88 CALM 30.01F VSB 3/4 SAINT SIMONS NOT AVBL $$ SCZ027-028-034-036>038-045-046-048>050-GAZ119-141-020900- ...LAKE AND SUPPLEMENTAL COASTAL OBSERVATIONS... STATION/POSITION TIME TEMP WIND PRES WAVE SWELL AIR SEA DIR/SP/G HT/PER HT/PER/DIR (UTC) (F) (DEG/KT/KT) (MB) (FT/S) (FT/S/D) UPR LAKE MARION NOT AVBL WINYAH BAY 0645 73 CALM 1016.0 LAKE MURRAY 0700 71 CALM / 4 1015.6F ACE BASIN NERRS NOT AVBL FORT PULASKI 0700 74 81 320/ 5/ 7 1016.7 SAPELO ISLAND 0700 72 270/ 3 1016.0F $$ ANZ835-935-AMZ111-154-330-350-352-354-370-450-454-472-020900- ...C-MAN AND BUOY OBSERVATIONS... STATION/POSITION TIME TEMP WIND PRES WAVE SWELL AIR SEA DIR/SP/G HT/PER HT/PER/DIR (UTC) (F) (DEG/KT/KT) (MB) (FT/S) (FT/S/D) BUOY 41004 0750 79 80 240/ 6/ 8 1015.8F 3/ 8 2/ 8 BUOY 41008 0750 76 78 260/ 8/ 10 1016.2F 2/ 9 2/ 90/ 9 FOLLY BEACH CMAN 0800 78 210/ 7/ 8 1015.9F CAPERS NEARSHORE 0708 78 230/ 8/ 10 1016.7F FRIPP NEARSHORE 0700 78 220/ 8/ 10 1016.1F STATION/POSITION TIME TEMP WIND PRES WAVE SWELL AIR SEA DIR/SP/G HT/PER HT/PER/DIR (UTC) (F) (DEG/KT/KT) (MB) (FT/S) (FT/S/D) 5E ST. MARYS GA 0721 80 N/A 2/ 9 FRYING PAN BUOY 0750 79 76 220/ 6/ 8 1017.2F 3/ 8 3/ 90/ 8 BUOY 41025 0750 78 81 210/ 12/ 12 1017.2S 3/ 9 3/ 70/ 9 CAPE LOOKOUT NC 0800 76 190/ 8/ 9 1016.6F BUOY 41002 0750 76 77 240/ 4/ 6 1017.7F 4/ 8 3/110/ 8 BUOY 41010 0720 78 80 160/ 4/ 6 1016.8F ST AUGUSTINE FL 0800 72 77 240/ 5/ 8 1016.8R $$

USA.gov is the U.S. government's official web portal to all federal, state and local government web resources and services.